ZL1TQN Weather Reports


Display with metric or nautical units.
time (UTC)temp
F
wind
direction
speed
MPH
gust
MPH
rain 1hr
in
rain 24hr
in
rain mn
in
humidity
%
barometer
mb
20260506033505 64 351 3.0 5.0 0.00 0.18 0.18 88 1028.8
20260506033006 64 349 1.0 3.0 0.00 0.18 0.18 89 1028.9
20260506031506 65 18 1.0 6.0 0.00 0.18 0.18 87 1028.8
20260506030006 65 43 1.0 3.0 0.00 0.18 0.18 88 1028.6
20260506025505 65 65 0.0 5.0 0.01 0.18 0.18 89 1028.6
20260506025006 66 71 1.0 5.0 0.01 0.18 0.18 88 1028.7
20260506024505 66 18 1.0 3.0 0.01 0.18 0.18 89 1028.8
20260506024006 66 18 1.0 3.0 0.01 0.18 0.18 89 1028.9
20260506023506 65 23 1.0 3.0 0.01 0.18 0.18 89 1028.9
20260506023005 66 17 2.0 3.0 0.01 0.18 0.18 89 1028.9
20260506022006 66 15 1.0 3.0 0.01 0.18 0.18 89 1028.8
20260506021506 66 2 2.0 3.0 0.01 0.18 0.18 90 1028.7
20260506021006 66 1 1.0 3.0 0.01 0.18 0.18 89 1028.7
20260506020006 65 18 1.0 3.0 0.01 0.18 0.18 91 1028.7
20260506015006 65 54 1.0 6.0 0.00 0.17 0.17 91 1028.7
20260506014505 65 19 2.0 6.0 0.00 0.17 0.17 89 1028.8
20260506014005 65 5 2.0 5.0 0.00 0.17 0.17 89 1028.8
20260506013505 65 9 2.0 3.0 0.00 0.17 0.17 89 1028.8
20260506012005 65 11 1.0 5.0 0.00 0.17 0.17 89 1029.1
20260506011506 65 19 1.0 5.0 0.00 0.17 0.17 90 1029.1
20260506011007 65 65 1.0 2.0 0.00 0.17 0.17 92 1029.1
20260506010005 64 18 1.0 3.0 0.00 0.17 0.17 93 1029.1
20260506004006 63 6 1.0 3.0 0.00 0.17 0.17 94 1029.5
20260506003505 63 316 0.0 3.0 0.00 0.17 0.17 94 1029.6
20260506003006 63 252 2.0 3.0 0.00 0.17 0.17 94 1029.6
20260506002506 63 4 1.0 3.0 0.01 0.17 0.17 94 1029.7
20260506002005 63 294 2.0 3.0 0.01 0.17 0.17 94 1029.7
20260506001506 62 313 2.0 5.0 0.02 0.17 0.17 93 1029.9
20260506001006 62 271 2.0 5.0 0.02 0.17 0.17 93 1030.0
20260506000005 63 8 1.0 3.0 0.02 0.17 0.17 93 1030.1
20260505235505 63 325 1.0 2.0 0.02 0.17 0.17 93 1030.1
20260505234505 63 358 1.0 3.0 0.02 0.17 0.17 94 1030.1
20260505234005 63 0 1.0 3.0 0.02 0.17 0.17 94 1030.2
20260505233505 63 93 1.0 3.0 0.02 0.17 0.17 94 1030.2
20260505233006 63 111 1.0 3.0 0.02 0.17 0.17 94 1030.3
20260505232505 63 36 1.0 3.0 0.01 0.17 0.17 94 1030.4
20260505232006 62 17 1.0 3.0 0.01 0.17 0.17 94 1030.5
20260505231505 62 19 1.0 3.0 0.00 0.16 0.16 93 1030.5
20260505231005 62 261 1.0 2.0 0.00 0.16 0.16 94 1030.5
20260505230006 62 134 1.0 2.0 0.00 0.16 0.16 95 1030.6
20260505225505 62 350 0.0 2.0 0.00 0.16 0.16 95 1030.5
20260505224505 62 77 1.0 2.0 0.00 0.16 0.16 95 1030.7
20260505223505 62 129 1.0 2.0 0.00 0.16 0.16 96 1030.7
20260505223006 61 184 1.0 2.0 0.00 0.16 0.16 96 1030.7
20260505222505 61 173 1.0 2.0 0.00 0.16 0.16 96 1030.7
20260505222005 61 174 1.0 3.0 0.00 0.16 0.16 96 1030.7
20260505221505 61 132 0.0 3.0 0.00 0.16 0.16 96 1030.7
20260505221006 61 85 2.0 3.0 0.00 0.16 0.16 96 1030.8
20260505220006 61 193 0.0 1.0 0.02 0.16 0.16 96 1030.8
20260505215505 61 193 0.0 2.0 0.03 0.16 0.16 96 1030.8
20260505215005 60 193 0.0 2.0 0.05 0.16 0.16 96 1030.8
20260505214505 60 177 1.0 2.0 0.06 0.16 0.16 96 1030.8
20260505214005 60 170 1.0 1.0 0.07 0.16 0.16 96 1030.8
20260505213505 60 170 0.0 1.0 0.07 0.16 0.16 96 1030.7
20260505212505 60 91 0.0 2.0 0.07 0.16 0.16 96 1030.8
20260505212005 60 131 0.0 1.0 0.07 0.16 0.16 96 1030.8
20260505211505 60 132 0.0 1.0 0.07 0.16 0.16 96 1030.8
20260505210006 59 151 0.0 2.0 0.06 0.14 0.14 96 1031.0
20260505205505 60 93 0.0 1.0 0.04 0.13 0.13 96 1031.0
20260505205006 59 115 0.0 1.0 0.02 0.11 0.11 96 1030.9
20260505204505 59 115 0.0 1.0 0.01 0.09 0.09 96 1030.9
20260505204006 59 115 0.0 1.0 0.00 0.09 0.09 96 1030.9
20260505203506 59 115 0.0 2.0 0.00 0.09 0.09 96 1030.9
20260505203006 59 140 1.0 2.0 0.00 0.09 0.09 96 1030.8
20260505202505 59 203 0.0 2.0 0.00 0.09 0.09 96 1030.8
20260505202006 59 142 1.0 2.0 0.00 0.09 0.09 96 1030.7
20260505201505 59 185 1.0 2.0 0.00 0.09 0.09 96 1030.7
20260505201005 59 136 1.0 2.0 0.00 0.09 0.09 96 1030.7
20260505200006 58 140 1.0 2.0 0.00 0.09 0.09 96 1030.6
20260505195006 58 143 1.0 2.0 0.01 0.09 0.09 96 1030.4
20260505194505 58 125 1.0 2.0 0.02 0.09 0.09 96 1030.3
20260505194005 58 147 1.0 2.0 0.03 0.09 0.09 96 1030.2
20260505193506 58 133 1.0 2.0 0.03 0.09 0.09 96 1030.2
20260505193005 58 134 0.0 1.0 0.03 0.09 0.09 96 1030.2
20260505192505 58 144 0.0 1.0 0.03 0.09 0.09 96 1030.2
20260505192005 58 140 0.0 1.0 0.03 0.09 0.09 96 1030.2
20260505191005 58 160 1.0 2.0 0.04 0.09 0.09 96 1030.2
20260505190006 58 159 1.0 2.0 0.04 0.09 0.09 96 1030.2
20260505185505 58 144 1.0 2.0 0.04 0.09 0.09 96 1030.2
20260505185005 58 128 1.0 2.0 0.03 0.08 0.08 96 1030.2
20260505183506 57 161 0.0 1.0 0.01 0.06 0.06 96 1030.2
20260505183005 58 146 0.0 2.0 0.01 0.06 0.06 96 1030.1
20260505182005 57 150 1.0 2.0 0.01 0.06 0.06 96 1030.2
20260505181506 57 144 1.0 2.0 0.00 0.05 0.05 96 1030.2
20260505181005 57 140 1.0 2.0 0.00 0.05 0.05 96 1030.2
20260505180006 57 147 1.0 2.0 0.00 0.05 0.05 96 1030.2
20260505175505 57 146 1.0 2.0 0.00 0.05 0.05 95 1030.2
20260505175005 57 143 0.0 2.0 0.00 0.05 0.05 95 1030.2
20260505174505 57 143 1.0 2.0 0.00 0.05 0.05 95 1030.2
20260505174005 57 140 1.0 2.0 0.00 0.05 0.05 95 1030.2
20260505173505 57 140 0.0 2.0 0.00 0.05 0.05 95 1030.2
20260505173005 57 140 0.0 2.0 0.00 0.05 0.05 95 1030.2
20260505172505 57 149 2.0 2.0 0.00 0.05 0.05 95 1030.2
20260505171505 57 141 1.0 2.0 0.00 0.05 0.05 95 1030.2
20260505171005 57 141 0.0 2.0 0.00 0.05 0.05 95 1030.1
20260505170005 57 141 1.0 2.0 0.01 0.05 0.05 95 1030.1
20260505165505 57 141 1.0 1.0 0.01 0.05 0.05 95 1030.1
20260505165005 57 141 1.0 2.0 0.01 0.05 0.05 95 1030.1
20260505164505 57 141 0.0 2.0 0.01 0.05 0.05 95 1030.1
20260505164005 57 141 1.0 2.0 0.01 0.05 0.05 95 1030.1
20260505163006 57 141 1.0 2.0 0.01 0.05 0.05 95 1030.1
20260505162505 57 141 1.0 3.0 0.01 0.05 0.05 95 1030.1
20260505162006 57 175 1.0 3.0 0.01 0.05 0.05 95 1030.1
20260505161505 57 144 1.0 3.0 0.01 0.05 0.05 95 1030.1
20260505161006 57 157 1.0 2.0 0.01 0.05 0.05 95 1030.1
20260505153005 57 136 0.0 2.0 0.04 0.04 0.04 95 1030.1
20260505152505 57 140 1.0 2.0 0.04 0.04 0.04 95 1030.2
20260505152005 57 128 0.0 3.0 0.04 0.04 0.04 95 1030.2
20260505151505 57 132 1.0 3.0 0.04 0.04 0.04 95 1030.2
20260505151005 57 229 1.0 3.0 0.04 0.04 0.04 95 1030.3
20260505125005 56 131 0.0 2.0 0.00 0.00 0.00 92 1031.7
20260505124504 56 131 0.0 2.0 0.00 0.00 0.00 92 1031.7
20260505124005 56 131 1.0 2.0 0.00 0.00 0.00 92 1031.7
20260505123005 56 129 0.0 2.0 0.00 0.00 0.00 92 1031.7
20260505122504 56 128 1.0 2.0 0.00 0.00 0.00 91 1031.7
20260505122005 56 147 1.0 2.0 0.00 0.00 0.00 91 1031.7
20260505121505 56 153 0.0 2.0 0.00 0.00 0.00 91 1031.7
20260505120006 56 143 0.0 2.0 0.00 0.00 0.00 91 1031.7
20260505115505 56 143 1.0 2.0 0.00 0.00 0.00 91 1031.7
20260505115005 56 135 1.0 3.0 0.00 0.00 0.00 91 1031.7
20260505114505 56 152 1.0 3.0 0.00 0.00 0.00 91 1031.8
20260505114004 56 146 1.0 3.0 0.00 0.00 0.00 91 1031.8
20260505113505 56 143 2.0 3.0 0.00 0.00 0.00 91 1031.8
20260505113005 56 148 2.0 3.0 0.00 0.00 0.00 91 1031.9
20260505112504 56 152 1.0 3.0 0.00 0.00 0.00 91 1032.0
20260505112005 56 137 1.0 3.0 0.00 0.00 0.00 91 1032.0
20260505102004 54 147 1.0 3.0 0.00 0.00 0.00 92 1032.3
20260505101504 54 146 1.0 2.0 0.00 0.00 0.00 92 1032.4
20260505101005 54 133 0.0 2.0 0.00 0.00 0.00 92 1032.4
20260505100005 53 153 1.0 2.0 0.00 0.00 0.00 91 1032.5
20260505095505 53 148 1.0 2.0 0.00 0.00 0.00 91 1032.5
20260505095005 54 149 1.0 2.0 0.00 0.00 0.00 91 1032.4
20260505094504 54 152 1.0 2.0 0.00 0.00 0.00 90 1032.5
20260505094004 54 148 1.0 2.0 0.00 0.00 0.00 90 1032.5
20260505093504 54 151 1.0 2.0 0.00 0.00 0.00 90 1032.5
20260505093005 55 147 1.0 2.0 0.00 0.00 0.00 90 1032.4
20260505092505 55 146 1.0 2.0 0.00 0.00 0.00 90 1032.4
20260505092005 55 151 1.0 2.0 0.00 0.00 0.00 90 1032.4
20260505091505 55 132 1.0 1.0 0.00 0.00 0.00 90 1032.4
20260505090005 55 148 1.0 2.0 0.00 0.00 0.00 90 1032.3
20260505085505 55 156 1.0 2.0 0.00 0.00 0.00 90 1032.3
20260505085005 55 143 1.0 2.0 0.00 0.00 0.00 90 1032.3
20260505084005 56 143 1.0 2.0 0.00 0.00 0.00 90 1032.3
20260505083006 56 154 1.0 2.0 0.00 0.00 0.00 90 1032.4
20260505082506 56 154 1.0 2.0 0.00 0.00 0.00 89 1032.3
20260505082007 56 152 1.0 2.0 0.00 0.00 0.00 89 1032.3
20260505081506 56 154 1.0 1.0 0.00 0.00 0.00 89 1032.3
20260505081006 56 154 0.0 1.0 0.00 0.00 0.00 88 1032.3
20260505080006 57 154 0.0 1.0 0.00 0.00 0.00 88 1032.3
20260505075506 57 154 0.0 1.0 0.00 0.00 0.00 88 1032.3
20260505075006 57 154 0.0 1.0 0.00 0.00 0.00 88 1032.3
20260505074506 57 154 0.0 2.0 0.00 0.00 0.00 87 1032.3
20260505074006 57 154 1.0 2.0 0.00 0.00 0.00 88 1032.3
20260505073506 58 140 1.0 2.0 0.00 0.00 0.00 87 1032.3
20260505073006 58 151 1.0 1.0 0.00 0.00 0.00 87 1032.3
20260505072507 58 144 0.0 1.0 0.00 0.00 0.00 86 1032.3
20260505071505 58 144 0.0 1.0 0.00 0.00 0.00 85 1032.2
20260505071006 58 144 0.0 2.0 0.00 0.00 0.00 85 1032.1
20260505070006 58 157 1.0 2.0 0.00 0.00 0.00 85 1032.1
20260505065506 58 157 1.0 2.0 0.00 0.00 0.00 84 1032.1
20260505065006 58 157 1.0 2.0 0.00 0.00 0.00 84 1032.2
20260505064505 58 153 1.0 3.0 0.00 0.00 0.00 84 1032.1
20260505064006 58 158 2.0 3.0 0.00 0.00 0.00 84 1032.2
20260505063505 58 149 2.0 3.0 0.00 0.00 0.00 84 1032.2
20260505063006 58 145 2.0 3.0 0.00 0.00 0.00 84 1032.2
20260505062506 58 140 1.0 2.0 0.00 0.00 0.00 83 1032.2
20260505062006 59 140 1.0 2.0 0.00 0.00 0.00 83 1032.2
20260505061505 59 140 1.0 2.0 0.00 0.00 0.00 83 1032.2
20260505061006 59 140 1.0 2.0 0.00 0.00 0.00 82 1032.2
20260505060006 60 76 0.0 0.0 0.00 0.00 0.00 80 1032.2
20260505055506 60 76 0.0 0.0 0.00 0.00 0.00 80 1032.1
20260505055006 60 76 0.0 0.0 0.00 0.00 0.00 80 1032.0
20260505054005 61 76 0.0 1.0 0.00 0.00 0.00 79 1031.9
20260505053506 61 76 0.0 1.0 0.00 0.00 0.00 78 1031.8
20260505053006 62 76 0.0 1.0 0.00 0.00 0.00 78 1031.8
20260505052505 62 76 0.0 1.0 0.00 0.00 0.00 76 1031.8
20260505052006 62 76 0.0 1.0 0.00 0.00 0.00 76 1031.8
20260505051506 62 76 0.0 1.0 0.00 0.00 0.00 76 1031.8
20260505051006 63 76 0.0 1.0 0.00 0.00 0.00 76 1031.8
20260505041506 66 29 0.0 1.0 0.00 0.00 0.00 69 1031.8
20260505041006 66 29 0.0 2.0 0.00 0.00 0.00 69 1031.8
20260505040006 66 49 0.0 3.0 0.00 0.00 0.00 68 1031.8
20260505035507 66 31 0.0 2.0 0.00 0.00 0.00 69 1031.8
20260505035006 66 23 0.0 2.0 0.00 0.00 0.00 69 1031.8
20260505034506 66 28 0.0 2.0 0.00 0.00 0.00 69 1031.8